Location: Glendale
(37.4556°N, 88.6714°W)
Time: 13:30:00
(UTC+00:00)

Cosmos 1023 Rocket - Pass Details

Date: 08 December 2019
Orbit: 736 x 773 km, 74.1° (Epoch: 23 January)

Event Time Altitude Azimuth Distance (km) Brightness Sun altitude
Exits shadow 11:24:32 18° 334° (NNW) 1,804 6.0 -17.7°
Maximum altitude 11:28:24 67° 255° (WSW) 831 4.4 -17.0°
Drops below altitude 10° 11:33:34 10° 174° (S) 2,301 7.3 -16.0°
Sets 11:35:57 0° 171° (S) 3,227 8.1 -15.6°
